LILACSAT-2

Last updated on Tue Aug 25 2026 00:03:14 GMT+0000 (Coordinated Universal Time)

1 40908U 15049K 26236.59192911 .00017699 00000+0 27885-3 0 9990 2 40908 97.4598 276.1173 0006564 21.0813 339.0709 15.53605981606363
UTC large
Height (km)
Speed (km/s)
/
Latitude / Longitude
Inclination (degrees)
Orbital Period (minutes)
Azimuth
Elevation
Range (km)
Doppler Factor

Next 0 passes for location: London (51.5072 / 0.1276)

No passes found over London.
LILACSAT-2